TimePST,TemperatureF,Dew PointF,Humidity,Sea Level PressureIn,VisibilityMPH,Wind Direction,Wind SpeedMPH,Gust SpeedMPH,PrecipitationIn,Events,Conditions,WindDirDegrees,DateUTC
12:54 AM,42.8,41.0,93,30.09,8.0,East,4.6,-,0.01,Rain,Light Rain,90,2013-02-07 08:54:00
12:56 AM,43.0,41.0,93,30.09,8.0,East,4.6,-,0.01,Rain,Light Rain,80,2013-02-07 08:56:00
1:27 AM,42.8,39.2,87,30.08,9.0,East,6.9,-,0.02,Rain,Light Rain,100,2013-02-07 09:27:00
1:56 AM,42.1,39.0,89,30.08,10.0,ESE,6.9,-,0.02,,Mostly Cloudy,110,2013-02-07 09:56:00
2:56 AM,41.0,39.0,93,30.09,9.0,ENE,5.8,-,0.01,Rain,Light Rain,70,2013-02-07 10:56:00
3:14 AM,41.0,39.2,93,30.09,6.0,Calm,Calm,-,0.02,Rain,Rain,0,2013-02-07 11:14:00
3:56 AM,41.0,39.0,93,30.09,8.0,ESE,3.5,-,0.07,Rain,Light Rain,120,2013-02-07 11:56:00
4:06 AM,42.8,39.2,87,30.08,6.0,ESE,9.2,-,0.02,Rain,Light Rain,120,2013-02-07 12:06:00
4:43 AM,41.0,37.4,87,30.08,10.0,ESE,8.1,-,0.05,,Scattered Clouds,110,2013-02-07 12:43:00
4:56 AM,39.9,37.9,93,30.08,10.0,East,8.1,-,0.05,,Partly Cloudy,100,2013-02-07 12:56:00
5:56 AM,39.9,37.0,89,30.08,10.0,East,8.1,-,N/A,,Overcast,90,2013-02-07 13:56:00
6:56 AM,39.0,37.0,93,30.07,10.0,ESE,4.6,-,N/A,,Partly Cloudy,120,2013-02-07 14:56:00
7:56 AM,39.9,37.9,93,30.07,10.0,East,5.8,-,N/A,,Scattered Clouds,100,2013-02-07 15:56:00
8:56 AM,45.0,42.1,90,30.08,10.0,ESE,5.8,-,N/A,,Overcast,120,2013-02-07 16:56:00
9:56 AM,46.0,39.0,76,30.08,10.0,SSE,12.7,-,N/A,,Overcast,150,2013-02-07 17:56:00
10:56 AM,44.1,37.9,79,30.10,4.0,South,9.2,21.9,0.03,Rain,Rain,190,2013-02-07 18:56:00
11:14 AM,41.0,37.4,87,30.10,2.0,SSW,9.2,21.9,0.07,Rain,Rain,210,2013-02-07 19:14:00
11:29 AM,42.8,37.4,81,30.10,4.0,SW,10.4,-,0.12,Rain,Rain,220,2013-02-07 19:29:00
11:56 AM,43.0,39.0,86,30.09,5.0,SSW,8.1,-,0.18,Rain,Light Rain,200,2013-02-07 19:56:00
12:56 PM,43.0,39.9,89,30.07,10.0,East,6.9,-,0.12,Rain,Light Rain,90,2013-02-07 20:56:00
1:56 PM,42.1,39.0,89,30.06,8.0,SE,8.1,-,0.03,Rain,Light Rain,140,2013-02-07 21:56:00
2:08 PM,42.8,39.2,87,30.05,3.0,ESE,6.9,-,0.03,Rain,Rain,120,2013-02-07 22:08:00
2:43 PM,41.0,37.4,87,30.04,10.0,East,6.9,-,0.09,,Overcast,100,2013-02-07 22:43:00
2:56 PM,39.9,37.0,89,30.04,10.0,East,10.4,-,0.09,Rain,Light Rain,100,2013-02-07 22:56:00
3:56 PM,44.1,42.1,93,30.04,10.0,ESE,9.2,-,0.01,,Mostly Cloudy,120,2013-02-07 23:56:00
4:49 PM,44.6,39.2,81,30.03,10.0,ESE,6.9,-,N/A,,Mostly Cloudy,110,2013-02-08 00:49:00
4:56 PM,43.0,39.9,89,30.03,10.0,ESE,5.8,-,N/A,,Mostly Cloudy,110,2013-02-08 00:56:00
5:05 PM,42.8,39.2,87,30.03,10.0,East,6.9,-,N/A,,Scattered Clouds,100,2013-02-08 01:05:00
5:56 PM,41.0,37.9,89,30.04,10.0,ESE,5.8,-,N/A,,Partly Cloudy,120,2013-02-08 01:56:00
6:56 PM,39.9,37.0,89,30.04,10.0,East,4.6,-,N/A,,Scattered Clouds,80,2013-02-08 02:56:00
7:56 PM,39.9,37.0,89,30.05,10.0,East,4.6,-,N/A,,Overcast,80,2013-02-08 03:56:00
8:56 PM,39.9,37.9,93,30.06,10.0,NNE,3.5,-,N/A,,Overcast,30,2013-02-08 04:56:00
9:56 PM,39.0,36.0,89,30.06,10.0,ENE,5.8,-,N/A,,Clear,70,2013-02-08 05:56:00
10:56 PM,37.9,35.1,89,30.08,10.0,NE,6.9,-,N/A,,Clear,50,2013-02-08 06:56:00
11:56 PM,37.9,35.1,89,30.09,10.0,NE,3.5,-,N/A,,Partly Cloudy,40,2013-02-08 07:56:00